Fort Smith, AR

7:23 PM CDT on September 29, 2016 (GMT -0500)
Fort Smith Regional

Weather History for KFSM - October, 2014

Change the Weather History Date:

Wednesday, October 1, 2014

  Actual Average Record
Temperature  
Mean Temperature 77 °F 62 °F  
Max Temperature 89 °F 74 °F 96 °F (1953)
Min Temperature 65 °F 50 °F 31 °F (1984)
Degree Days  
Heating Degree Days 0 5  
Month to date heating degree days 0 5  
Since 1 July heating degree days 4 57  
Cooling Degree Days 12 2  
Month to date cooling degree days 12 2  
Year to date cooling degree days 1971 1285  
Growing Degree Days 26 (Base 50)    
Moisture  
Dew Point 65 °F    
Average Humidity 69    
Maximum Humidity 87    
Minimum Humidity 50    
Precipitation  
Precipitation 0.00 in 0.15 in 1.90 in (1943)
Month to date precipitation 0.00 0.15  
Year to date precipitation 30.35 36.86  
Sea Level Pressure  
Sea Level Pressure 29.81 in    
Wind  
Wind Speed 6 mph (East)    
Max Wind Speed 14 mph    
Max Gust Speed 19 mph    
Visibility 9 miles    
Events      
T = Trace of Precipitation, MM = Missing Value Source: NWS Daily Summary

Daily Weather History Graph

Daily Weather History Graph

Search for Another Location

Airport or City:

Trip Planner

Search our weather history database for the weather conditions in past years. The results will help you decide how hot, cold, wet, or windy it might be!

Date:

Astronomy

Oct. 01, 2014 Rise Set
Actual Time 7:12 AM CDT 7:01 PM CDT
Civil Twilight 6:46 AM CDT 7:26 PM CDT
Nautical Twilight 6:17 AM CDT 7:55 PM CDT
Astronomical Twilight 5:47 AM CDT 8:25 PM CDT
Moon 2:04 PM CDT (10/1) No Moon Set
Length of Visible Light 12h 39m
Length of Day
11h 48m
Waxing Crescent, 49% of the Moon is Illuminated
Oct 1
Waxing Crescent
Oct 1
First Quarter
Oct 8
Full
Oct 15
Last Quarter
Oct 23
New

Hourly Weather History & Observations

Time (CDT) Temp. Heat Index Dew Point Humidity Pressure Visibility Wind Dir Wind Speed Gust Speed Precip Events Conditions
12:53 AM 66.9 °F - 61.0 °F 81% 29.93 in 10.0 mi NE 4.6 mph - N/A   Clear
1:53 AM 66.0 °F - 62.1 °F 87% 29.93 in 10.0 mi NE 3.5 mph - N/A   Clear
2:53 AM 64.9 °F - 62.1 °F 90% 29.94 in 10.0 mi ENE 3.5 mph - N/A   Clear
3:53 AM 66.2 °F - 62.6 °F 88% 29.82 in 8.0 mi ENE 8.1 mph - N/A   Clear
4:53 AM 66.9 °F - 62.1 °F 84% 29.81 in 9.0 mi East 9.2 mph - N/A   Clear
5:53 AM 66.0 °F - 62.1 °F 87% 29.81 in 7.0 mi ENE 5.8 mph - N/A   Clear
6:53 AM 66.0 °F - 61.0 °F 84% 29.82 in 8.0 mi ENE 4.6 mph - N/A   Partly Cloudy
7:53 AM 66.9 °F - 62.1 °F 84% 29.83 in 6.0 mi NNE 4.6 mph - N/A   Haze
8:53 AM 70.0 °F - 62.1 °F 76% 29.84 in 8.0 mi ENE 6.9 mph - N/A   Mostly Cloudy
9:53 AM 75.0 °F - 64.0 °F 69% 29.84 in 9.0 mi ENE 3.5 mph - N/A   Partly Cloudy
10:53 AM 81.0 °F 83.3 °F 66.9 °F 62% 29.83 in 10.0 mi Variable 4.6 mph - N/A   Clear
11:53 AM 82.0 °F 84.9 °F 68.0 °F 62% 29.83 in 10.0 mi WSW 4.6 mph - N/A   Mostly Cloudy
12:53 PM 86.0 °F 90.1 °F 69.1 °F 57% 29.81 in 10.0 mi SSE 10.4 mph - N/A   Scattered Clouds
1:53 PM 86.0 °F 89.4 °F 68.0 °F 55% 29.79 in 10.0 mi South 10.4 mph - N/A   Partly Cloudy
2:53 PM 87.1 °F 89.9 °F 66.9 °F 51% 29.77 in 10.0 mi SSE 9.2 mph - N/A   Mostly Cloudy
3:53 PM 87.1 °F 90.6 °F 68.0 °F 53% 29.75 in 10.0 mi South 9.2 mph - N/A   Partly Cloudy
4:53 PM 87.1 °F 90.6 °F 68.0 °F 53% 29.75 in 10.0 mi South 8.1 mph - N/A   Clear
5:53 PM 81.0 °F 81.7 °F 61.0 °F 50% 29.82 in 10.0 mi SE 6.9 mph - N/A   Mostly Cloudy
6:53 PM 82.9 °F 85.4 °F 66.9 °F 58% 29.76 in 10.0 mi SSE 6.9 mph - N/A   Clear
7:53 PM 79.0 °F - 69.1 °F 72% 29.77 in 10.0 mi SSE 4.6 mph - N/A   Clear
8:53 PM 78.1 °F - 68.0 °F 71% 29.78 in 10.0 mi Calm Calm - N/A   Clear
9:53 PM 75.0 °F - 68.0 °F 79% 29.80 in 10.0 mi ENE 4.6 mph - N/A   Clear
10:53 PM 73.0 °F - 68.0 °F 84% 29.79 in 10.0 mi ENE 5.8 mph - N/A   Clear
11:53 PM 73.9 °F - 68.0 °F 82% 29.79 in 10.0 mi East 3.5 mph - N/A   Partly Cloudy